Weather History for Middletown, OH

Change the Weather History Date:

Saturday, March 16, 2013

  Actual Average (KDAY) Record (KDAY)
Temperature  
Mean Temperature 46 °F 40 °F  
Max Temperature 57 °F 50 °F 78 °F (1945)
Min Temperature 35 °F 31 °F 8 °F (1970)
Degree Days  
Heating Degree Days 19 25  
Month to date heating degree days 439  
Since 1 July heating degree days 4714  
Cooling Degree Days 0 0  
Month to date cooling degree days 0  
Year to date cooling degree days 0  
Moisture  
Dew Point 42 °F    
Average Humidity 91    
Maximum Humidity 100    
Minimum Humidity 73    
Precipitation  
Precipitation 0.00 in 0.11 in 1.37 in (1943)
Month to date precipitation 1.56  
Year to date precipitation 6.51  
Snow  
Snow 0.00 in 0.10 in 5.00 in (2004)
Month to date snowfall 2.2  
Since 1 July snowfall 21.5  
Snow Depth -    
Sea Level Pressure  
Sea Level Pressure 29.80 in    
Wind  
Wind Speed 6 mph (NNW)    
Max Wind Speed 17 mph    
Max Gust Speed 25 mph    
Visibility 8 miles    
Events Fog    
T = Trace of Precipitation, MM = Missing Value Source: NWS Daily Summary

Daily Weather History Graph

Daily Weather History Graph

Search for Another Location

Airport:

Trip Planner

Search our weather history database for the weather conditions in past years. The results will help you decide how hot, cold, wet, or windy it might be!

Date:

Astronomy

Mar. 16, 2013 Rise Set
Actual Time 7:47 AM EDT 7:45 PM EDT
Civil Twilight 7:20 AM EDT 8:12 PM EDT
Nautical Twilight 6:48 AM EDT 8:43 PM EDT
Astronomical Twilight 6:17 AM EDT 9:15 PM EDT
Moon 10:17 AM EDT (3/16) No Moon Set
Length of Visible Light 12h 52m
Length of Day
11h 58m
Waxing Crescent, 23% of the Moon is Illuminated
Mar 16
Waxing Crescent
Mar 19
First Quarter
Mar 27
Full
Apr 3
Last Quarter
Apr 10
New

Hourly Weather History & Observations

Time (EDT) Temp. Windchill Dew Point Humidity Pressure Visibility Wind Dir Wind Speed Gust Speed Precip Events Conditions
12:15 AM 47.7 °F - 43.7 °F 86% 29.81 in 10.0 mi NNE 6.9 mph - N/A   Mostly Cloudy
12:35 AM 47.7 °F - 43.7 °F 86% 29.82 in 10.0 mi Calm Calm - N/A   Overcast
12:55 AM 45.3 °F - 42.4 °F 90% 29.80 in 10.0 mi Calm Calm - N/A   Overcast
1:15 AM 45.1 °F 42.8 °F 43.9 °F 95% 29.78 in 10.0 mi NE 4.6 mph - N/A   Overcast
1:55 AM 42.8 °F 40.1 °F 42.6 °F 99% 29.77 in 2.5 mi NE 4.6 mph - N/A   Unknown
2:15 AM 42.8 °F 38.6 °F 42.8 °F 100% 29.76 in 5.0 mi NNW 6.9 mph - N/A   Overcast
2:35 AM 43.5 °F - 43.5 °F 100% 29.75 in 10.0 mi Calm Calm - N/A   Overcast
2:55 AM 45.1 °F - 44.6 °F 98% 29.72 in 10.0 mi Calm Calm - N/A   Mostly Cloudy
3:15 AM 45.1 °F 41.4 °F 44.2 °F 97% 29.71 in 10.0 mi South 6.9 mph - N/A   Mostly Cloudy
3:35 AM 45.1 °F 42.8 °F 44.8 °F 99% 29.70 in 10.0 mi SSE 4.6 mph - N/A   Scattered Clouds
3:55 AM 45.1 °F 43.7 °F 45.0 °F 99% 29.70 in 10.0 mi SSW 3.5 mph - N/A   Clear
4:15 AM 45.1 °F - 44.8 °F 99% 29.69 in 10.0 mi Calm Calm - N/A   Clear
4:35 AM 45.1 °F 42.8 °F 45.0 °F 99% 29.68 in 10.0 mi South 4.6 mph - N/A   Clear
4:55 AM 45.1 °F 42.8 °F 45.0 °F 99% 29.67 in 10.0 mi SSW 4.6 mph - N/A   Clear
5:15 AM 42.4 °F 39.6 °F 42.4 °F 100% 29.66 in 7.0 mi South 4.6 mph - N/A   Clear
5:35 AM 41.5 °F 39.6 °F 41.5 °F 100% 29.66 in 7.0 mi SW 3.5 mph - N/A   Clear
5:55 AM 41.9 °F 39.0 °F 41.9 °F 100% 29.66 in 7.0 mi SW 4.6 mph - N/A   Scattered Clouds
6:15 AM 41.7 °F 39.8 °F 41.7 °F 100% 29.65 in 7.0 mi SSW 3.5 mph - N/A   Clear
6:35 AM 42.8 °F - 42.8 °F 100% 29.66 in 7.0 mi Calm Calm - N/A   Clear
6:55 AM 45.1 °F - 45.1 °F 100% 29.65 in 10.0 mi Calm Calm - N/A   Clear
7:15 AM 41.0 °F - 41.0 °F 100% 29.66 in 4.0 mi Calm Calm - N/A   Clear
7:35 AM 38.8 °F - 38.8 °F 100% 29.67 in 0.5 mi Calm Calm - N/A Fog Fog
7:55 AM 38.8 °F 36.5 °F 38.8 °F 100% 29.67 in 1.2 mi SSW 3.5 mph - N/A   Overcast
8:15 AM 40.1 °F - 40.1 °F 100% 29.64 in 3.0 mi Calm Calm - N/A   Mostly Cloudy
8:35 AM 40.3 °F - 40.3 °F 100% 29.64 in 2.5 mi Calm Calm - N/A   Scattered Clouds
8:55 AM 42.3 °F 39.4 °F 42.3 °F 100% 29.64 in 2.5 mi SW 4.6 mph - N/A   Clear
9:15 AM 47.7 °F - 47.7 °F 100% 29.63 in 7.0 mi SW 4.6 mph - N/A   Clear
9:35 AM 47.7 °F - 47.7 °F 100% 29.65 in 5.0 mi WSW 5.8 mph - N/A   Clear
9:55 AM 47.7 °F - 47.7 °F 100% 29.66 in 7.0 mi SW 4.6 mph - N/A   Clear
10:15 AM 52.3 °F - 51.6 °F 97% 29.65 in 10.0 mi SW 3.5 mph - N/A   Scattered Clouds
10:35 AM 52.7 °F - 50.0 °F 91% 29.65 in 10.0 mi West 6.9 mph - N/A   Scattered Clouds
10:55 AM 55.4 °F - 51.8 °F 88% 29.66 in 10.0 mi WNW 9.2 mph - N/A   Scattered Clouds
11:15 AM 57.7 °F - 52.7 °F 83% 29.67 in 10.0 mi NW 17.3 mph 21.9 mph N/A   Clear
11:35 AM 57.7 °F - 51.1 °F 78% 29.68 in 10.0 mi WNW 15.0 mph 18.4 mph N/A   Clear
11:55 AM 57.7 °F - 50.9 °F 78% 29.70 in 10.0 mi NW 12.7 mph 17.3 mph N/A   Clear
12:15 PM 57.7 °F - 50.2 °F 76% 29.71 in 10.0 mi WNW 12.7 mph 17.3 mph N/A   Clear
12:35 PM 55.4 °F - 48.2 °F 77% 29.73 in 10.0 mi NNW 13.8 mph 20.7 mph N/A   Scattered Clouds
12:55 PM 55.4 °F - 48.0 °F 76% 29.74 in 10.0 mi NW 12.7 mph - N/A   Scattered Clouds
1:15 PM 55.4 °F - 47.1 °F 74% 29.76 in 7.0 mi WNW 12.7 mph - N/A   Scattered Clouds
1:35 PM 55.4 °F - 46.8 °F 73% 29.78 in 7.0 mi North 16.1 mph 25.3 mph N/A   Scattered Clouds
1:55 PM 52.7 °F - 45.9 °F 78% 29.79 in 7.0 mi NNW 17.3 mph 20.7 mph N/A   Mostly Cloudy
2:15 PM 52.7 °F - 45.3 °F 76% 29.80 in 5.0 mi NW 15.0 mph 19.6 mph N/A   Haze
2:55 PM 52.7 °F - 45.7 °F 77% 29.83 in 7.0 mi North 16.1 mph - N/A   Mostly Cloudy
3:15 PM 50.0 °F - 43.7 °F 79% 29.84 in 7.0 mi NNW 13.8 mph 20.7 mph N/A   Overcast
3:35 PM 47.7 °F - 42.6 °F 83% 29.85 in 7.0 mi NW 12.7 mph 20.7 mph N/A   Overcast
3:55 PM 47.7 °F - 43.0 °F 84% 29.86 in 7.0 mi NW 13.8 mph 19.6 mph N/A   Overcast
4:15 PM 47.7 °F - 43.5 °F 86% 29.87 in 7.0 mi North 15.0 mph - N/A   Overcast
4:35 PM 47.7 °F - 43.3 °F 85% 29.88 in 7.0 mi North 12.7 mph - N/A   Overcast
4:55 PM 47.7 °F - 43.3 °F 85% 29.89 in 7.0 mi North 11.5 mph 17.3 mph N/A   Overcast
5:15 PM 45.1 °F 38.8 °F 41.9 °F 88% 29.91 in 5.0 mi North 13.8 mph - N/A   Overcast
5:35 PM 42.8 °F 35.8 °F 39.9 °F 90% 29.92 in 5.0 mi North 13.8 mph - N/A   Overcast
5:55 PM 41.4 °F 34.3 °F 38.7 °F 90% 29.93 in 5.0 mi North 12.7 mph - N/A   Overcast
6:15 PM 40.1 °F 33.2 °F 38.3 °F 93% 29.95 in 4.0 mi North 11.5 mph - N/A   Overcast
6:35 PM 40.1 °F 33.6 °F 38.3 °F 93% 29.96 in 4.0 mi NNE 10.4 mph - N/A   Overcast
6:55 PM 40.1 °F 32.4 °F 37.6 °F 91% 29.96 in 5.0 mi North 13.8 mph - N/A   Overcast
7:15 PM 39.7 °F 33.2 °F 37.0 °F 90% 29.97 in 7.0 mi North 10.4 mph - N/A   Overcast
7:35 PM 38.8 °F 31.2 °F 36.5 °F 91% 29.98 in 7.0 mi NNE 12.7 mph - N/A   Overcast
7:55 PM 37.8 °F 29.8 °F 35.4 °F 91% 29.98 in 7.0 mi North 12.7 mph 16.1 mph N/A   Overcast
8:15 PM 37.6 °F 31.0 °F 35.2 °F 91% 29.98 in 7.0 mi NNE 9.2 mph - N/A   Overcast
8:35 PM 37.6 °F 30.0 °F 35.2 °F 91% 29.97 in 10.0 mi North 11.5 mph 17.3 mph N/A   Overcast
8:55 PM 37.6 °F 30.5 °F 35.2 °F 91% 29.97 in 10.0 mi NNE 10.4 mph - N/A   Overcast
9:15 PM 37.6 °F 32.3 °F 35.2 °F 91% 29.99 in 10.0 mi NNE 6.9 mph - N/A   Overcast
9:35 PM 37.6 °F 31.6 °F 34.9 °F 90% 30.00 in 10.0 mi NNE 8.1 mph - N/A   Overcast
9:55 PM 37.6 °F 32.3 °F 35.2 °F 91% 30.01 in 10.0 mi NNE 6.9 mph - N/A   Overcast
10:15 PM 37.6 °F 34.0 °F 35.2 °F 91% 30.03 in 10.0 mi NNE 4.6 mph - N/A   Overcast
10:35 PM 37.6 °F 34.0 °F 35.2 °F 91% 30.04 in 10.0 mi North 4.6 mph - N/A   Overcast
10:55 PM 36.9 °F 31.4 °F 34.5 °F 91% 30.05 in 10.0 mi North 6.9 mph - N/A   Overcast
11:15 PM 35.6 °F 29.9 °F 33.3 °F 91% 30.04 in 10.0 mi NNE 6.9 mph - N/A   Overcast
11:35 PM 35.2 °F 28.8 °F 32.9 °F 91% 30.05 in 10.0 mi NNE 8.1 mph - N/A   Overcast
11:55 PM 35.1 °F 30.1 °F 32.9 °F 92% 30.06 in 10.0 mi NNE 5.8 mph - N/A   Overcast